Location: Saint-Maurice-d�Ard�che
(44.5216°N, 4.4002°E)
Time: 02:46:47
(UTC+00:00)

STARLINK-1241 - Pass Details

Date: 30 March 2020
Orbit: 548 x 551 km, 53.0° (Epoch: 02 June)

Event Time Altitude Azimuth Distance (km) Brightness Sun altitude
Rises 19:17:18 0° 249° (WSW) 2,716 8.0 -12.9°
Reaches altitude 10° 19:19:34 10° 253° (WSW) 1,825 7.1 -13.3°
Maximum altitude 19:23:38 55° 332° (NNW) 664 4.3 -13.9°
Drops below altitude 10° 19:27:44 10° 52° (NE) 1,832 6.0 -14.6°
Enters shadow 19:28:11 - 53° (NE) 2,001 6.2 -14.7°
